Wind_Speed
21 21 20 21 19 17 11 3 4 3 10 6 5 15 11 14 22 10 14 7 7 11 6 19 10 15 13 11 16 19 11 5 5 14 2 8 20 14 9 6 7 1 2 8
20 20 21 22 21 16 5 3 4 10 8 7 13 11 24 21 21 14 18 14 12 6 5 7 8 8 5 8 16 17 9 6 7 6 4 3 8 10 12 5 3 11 9 6
22 22 23 23 22 19 14 3 3 4 5 11 17 17 21 20 15 21 24 13 12 13 17 13 5 5 4 6 8 8 19 6 20 17 18 6 5 6 7 14 7 10 13 11
23 23 24 24 24 21 14 4 5 5 6 8 16 19 15 15 13 18 16 21 20 14 9 7 5 4 2 0 4 5 11 14 10 18 6 11 16 15 14 14 14 12 12 12
25 25 26 26 27 22 20 3 3 4 10 15 13 15 16 23 22 17 20 21 20 19 20 6 3 6 3 1 3 4 2 6 8 8 12 12 13 17 19 18 9 11 9 9
26 26 28 28 27 19 8 9 10 5 12 12 9 9 19 20 17 15 23 19 23 26 22 14 10 7 6 6 5 4 7 7 5 13 8 10 9 17 16 10 8 13 12 8
26 28 30 31 26 22 20 9 5 5 9 11 16 19 18 13 16 24 20 24 21 13 17 11 9 9 8 6 7 4 5 6 1 4 10 9 11 5 18 17 10 10 5 11
26 28 32 31 28 24 24 18 8 3 7 10 17 17 16 18 12 18 25 21 6 7 13 3 5 4 3 5 2 7 4 4 4 5 7 2 2 5 9 13 11 12 10 15
26 28 30 34 27 21 22 24 22 5 5 13 19 18 19 13 6 5 15 15 4 4 4 7 11 9 6 7 4 3 5 1 2 3 5 10 3 2 2 4 10 12 12 19
26 27 28 30 26 14 20 15 28 11 3 8 10 12 6 5 3 4 3 9 10 6 3 10 11 14 5 9 9 5 4 2 6 3 3 2 1 2 2 11 4 17 16 16
26 26 28 29 29 18 17 18 23 23 3 7 10 12 13 9 7 5 3 2 7 6 7 9 8 6 11 10 7 7 8 7 4 3 6 9 1 2 5 1 5 11 13 9
24 25 26 28 27 24 16 12 18 23 4 4 8 13 16 7 3 2 3 4 2 5 5 5 5 3 5 13 10 2 7 5 6 2 2 2 3 3 2 1 12 7 12 12
23 25 26 27 28 25 18 20 18 12 3 3 5 8 10 9 9 11 3 3 3 5 3 3 2 8 4 8 10 6 2 4 4 5 4 3 3 5 4 7 11 13 15 15
23 24 25 26 27 23 16 21 17 15 2 3 4 2 5 3 11 17 20 13 8 7 3 2 2 3 1 3 4 3 2 6 7 5 7 7 8 6 9 13 14 14 12 11
22 24 25 26 23 18 12 21 27 26 3 2 2 3 3 6 11 11 7 11 3 2 2 3 2 0 1 1 2 3 1 6 5 4 9 8 5 4 9 13 12 13 15 11
22 24 24 25 24 14 12 2 11 28 13 2 2 1 3 5 12 6 5 3 1 2 2 3 2 3 2 2 3 4 2 2 5 6 7 10 11 6 4 11 10 10 11 11
22 24 24 25 23 12 3 3 4 29 23 2 1 1 2 5 6 2 2 2 1 2 2 3 1 3 2 2 3 2 6 12 12 13 13 9 7 6 8 12 11 13 13 11
23 24 25 19 18 15 7 11 4 23 5 1 1 1 0 1 2 3 3 2 2 5 3 2 2 2 2 4 4 4 7 10 10 8 7 9 12 11 9 11 10 9 8 7
22 24 19 7 4 3 5 6 11 12 2 1 2 3 2 3 0 2 3 3 3 2 2 1 1 2 4 4 3 5 4 4 7 9 10 11 12 11 10 8 7 7 6 6
20 11 1 2 5 7 11 5 2 1 1 1 2 1 2 1 0 1 1 2 1 2 3 2 4 4 2 3 1 2 3 8 10 12 6 7 7 9 9 6 4 4 6 6
4 2 2 3 9 2 0 2 2 2 2 2 2 2 4 1 2 2 1 2 1 3 1 2 2 3 2 4 7 5 4 4 3 5 3 7 7 9 7 6 5 5 6 5
6 3 3 2 1 2 2 1 1 3 2 2 3 2 2 2 1 2 2 2 1 3 2 3 3 2 1 2 6 6 6 7 4 2 1 0 2 2 5 5 6 8 7 6
6 3 3 2 1 3 4 3 2 2 4 4 3 3 1 1 3 3 3 5 3 1 3 2 1 2 2 1 3 5 5 6 5 5 5 4 2 2 6 7 8 9 10 13
3 4 4 4 3 4 4 4 2 2 4 7 4 3 2 2 3 2 4 2 2 2 2 2 3 5 4 3 1 2 3 2 2 1 1 2 4 6 7 11 10 10 13 15
3 3 4 5 1 1 0 1 2 1 6 4 4 3 2 2 3 2 3 2 1 1 3 3 4 7 6 5 3 3 2 1 1 1 3 4 5 6 9 12 13 13 19 22
2 2 1 1 1 0 1 2 2 2 4 3 3 3 3 2 3 2 1 4 3 3 2 3 6 7 5 4 4 3 2 2 3 4 5 6 8 8 9 13 14 17 19 23
2 1 0 1 1 2 2 2 2 2 1 2 2 3 2 2 2 2 2 3 2 2 3 4 6 7 5 4 4 3 3 3 4 5 6 8 10 10 9 6 17 18 18 20
Wind_Direction
305 303 299 298 303 306 303 199 263 227 195 222 242 224 232 245 257 256 255 296 269 261 266 233 230 218 214 180 163 197 184 141 173 208 160 219 206 195 185 189 191 211 229 219
317 307 299 295 294 292 243 231 258 244 190 248 236 249 247 249 259 256 237 258 235 267 256 244 210 222 231 173 177 185 176 188 185 204 218 191 196 196 193 152 133 203 217 215
312 306 305 297 293 278 247 216 255 231 210 240 242 257 249 245 254 245 256 256 281 283 270 261 271 225 227 193 209 159 169 159 202 208 217 144 181 169 178 192 205 214 230 222
310 308 303 297 292 276 247 198 225 219 250 242 233 247 254 261 245 236 217 247 246 251 267 244 229 210 202 254 168 147 170 212 205 212 181 193 206 200 182 201 210 207 222 213
303 302 305 297 294 280 238 209 203 219 253 261 267 220 230 239 252 245 225 229 231 231 234 243 122 9 12 285 213 153 197 205 169 188 198 186 208 209 197 201 203 230 219 221
302 297 300 299 299 267 230 208 233 246 258 275 279 258 236 239 226 241 238 227 228 241 247 254 286 273 279 262 295 197 165 147 152 214 189 192 249 210 195 197 193 200 205 208
303 298 303 304 297 273 224 202 198 228 255 246 258 270 260 262 260 242 244 233 233 241 257 266 245 252 235 242 261 218 157 141 129 141 142 196 243 236 205 211 200 189 164 173
303 301 305 301 293 271 232 216 208 213 261 262 272 274 273 276 248 256 244 251 263 240 229 259 197 214 222 222 235 201 191 141 120 156 199 292 162 182 161 182 215 196 166 145
302 306 307 308 296 264 230 224 222 225 240 244 252 267 258 265 248 289 242 242 200 352 208 198 228 237 200 209 177 101 120 113 167 159 176 217 197 160 184 150 218 167 160 158
300 307 304 307 316 275 231 233 223 241 252 260 264 271 300 267 244 247 221 229 226 175 213 202 203 226 246 202 187 176 126 121 183 164 213 273 254 288 259 177 218 166 167 160
297 306 309 308 305 303 241 241 236 228 216 245 251 259 269 266 244 247 314 170 198 176 204 202 192 198 207 221 196 177 179 168 183 143 198 237 132 155 200 75 78 134 138 140
296 305 305 305 302 306 272 243 239 238 218 271 286 260 266 223 209 235 274 290 277 172 201 220 175 157 178 199 207 124 206 206 172 233 193 4 325 301 11 248 134 119 119 125
299 304 303 303 303 303 274 234 233 247 212 265 246 242 232 237 243 242 257 269 330 258 166 173 151 189 151 189 195 133 130 174 107 146 22 7 32 62 77 112 106 117 127 126
297 303 303 301 305 308 285 219 236 210 206 234 238 291 242 229 275 282 232 237 265 280 236 143 114 143 228 188 136 138 150 137 138 92 118 96 44 80 98 95 95 94 85 101
297 302 304 301 299 296 297 264 231 205 224 292 269 289 259 304 324 320 256 232 195 304 16 63 103 27 145 66 115 94 246 162 167 182 150 122 123 131 110 110 111 113 114 104
299 299 301 300 300 300 288 283 191 195 197 234 236 282 308 311 330 340 339 12 84 127 88 86 49 38 25 100 85 7 296 73 62 129 118 104 125 127 118 110 117 119 108 107
298 298 298 299 296 279 241 294 308 196 198 233 126 261 270 316 309 302 336 0 66 52 61 51 74 15 323 85 97 113 45 74 87 100 103 97 131 138 121 117 113 102 98 97
298 297 300 293 291 276 247 249 246 175 180 168 227 164 204 288 341 346 6 12 20 33 83 35 23 14 358 72 41 44 60 80 65 52 58 116 118 119 116 121 126 119 122 125
296 310 318 277 250 195 215 190 159 169 127 189 192 203 153 187 220 312 354 10 57 337 66 52 244 14 49 119 351 53 46 81 113 83 96 121 133 139 142 142 149 147 151 149
303 318 323 250 220 161 109 99 115 174 210 181 194 156 149 172 156 83 131 74 89 55 18 312 47 54 27 29 148 117 95 122 123 105 105 120 138 158 171 179 159 169 171 167
203 213 237 211 140 106 36 120 158 135 232 192 155 172 145 244 146 152 357 114 43 96 73 115 84 86 41 40 74 44 41 173 153 57 109 175 170 180 186 198 193 182 185 203
234 163 135 94 81 52 87 92 127 216 206 165 151 153 136 128 154 109 14 102 43 86 354 66 82 129 167 52 65 65 65 79 97 51 47 64 223 201 206 206 209 215 224 243
223 221 173 181 64 77 176 168 206 216 176 177 167 108 66 95 49 62 45 56 54 95 41 75 115 160 190 77 54 64 70 73 78 80 77 92 99 158 200 216 225 226 235 243
214 190 156 210 184 230 195 203 182 164 141 140 116 84 74 63 57 59 72 49 126 81 91 134 182 191 164 151 137 105 93 101 93 61 271 262 255 257 254 248 247 240 244 249
212 166 197 201 205 91 143 147 116 99 137 123 100 78 90 56 92 36 115 87 95 201 159 169 178 173 163 163 167 165 149 159 281 280 278 282 280 263 270 266 262 251 259 265
227 206 121 78 136 146 141 139 136 172 142 97 66 99 93 83 118 101 143 125 158 174 183 164 143 157 170 168 178 187 194 224 275 285 275 278 279 271 275 293 288 280 272 264
190 149 56 182 181 143 146 151 173 137 82 95 110 71 64 101 76 126 197 173 179 167 145 148 156 159 164 169 178 195 215 261 282 290 288 281 289 292 287 280 288 294 293 288
Height
828 828 827 827 827 827 826 827 825 814 816 820 813 803 793 782 769 769 768 762 750 745 737 730 731 722 712 711 714 728 728 746 762 750 744 739 735 748 754 771 791 794 782 770
825 823 822 821 822 823 824 821 816 813 814 815 799 792 784 783 774 767 764 758 749 740 737 737 725 718 708 710 709 712 726 739 757 753 749 747 744 749 745 761 771 773 777 767
820 818 817 816 815 816 818 817 811 808 806 798 795 791 780 773 767 766 765 756 752 748 739 728 721 713 707 708 706 711 707 731 725 735 724 738 749 750 752 744 766 756 758 753
815 813 811 810 808 808 812 806 800 797 792 786 788 788 779 770 768 758 756 755 753 751 739 725 721 711 707 708 712 710 707 718 724 715 722 724 722 732 745 744 737 749 742 753
809 807 804 802 800 800 800 796 796 793 783 780 784 772 769 764 756 754 746 746 737 736 740 722 721 718 711 708 711 711 714 714 720 731 723 723 726 725 730 732 736 735 741 743
802 800 797 795 792 792 788 788 789 791 776 774 772 762 756 749 750 747 739 732 734 733 726 726 725 723 718 717 714 711 712 718 723 720 725 732 740 719 723 727 730 724 742 729
796 792 789 785 783 782 781 781 784 778 768 769 760 755 751 745 743 738 729 726 727 717 720 721 722 718 715 712 711 710 713 715 725 731 727 746 703 705 703 711 719 724 727 729
788 784 781 777 773 770 772 774 777 771 762 760 752 751 744 738 738 734 726 715 719 717 719 718 718 722 713 710 713 709 710 715 730 728 722 718 715 714 711 713 718 716 720 732
781 777 773 768 763 761 763 764 768 765 761 749 748 743 736 732 728 727 719 715 718 717 713 717 715 709 707 712 709 710 710 712 708 728 722 719 704 704 702 698 710 716 719 726
774 771 766 761 754 754 756 755 759 761 752 742 745 740 732 727 721 719 712 710 715 718 716 707 710 709 699 705 706 710 713 717 717 722 715 711 709 708 707 714 706 708 716 724
767 764 759 755 750 747 749 747 750 753 746 740 738 731 729 724 723 719 709 708 707 715 713 699 698 695 695 695 693 701 702 712 716 720 715 718 711 708 708 708 714 713 719 728
760 757 754 749 745 741 742 740 741 743 741 735 730 726 725 723 725 724 717 705 695 691 701 689 685 691 693 683 692 697 702 698 704 711 703 717 718 715 712 715 709 721 726 733
753 750 747 743 739 736 735 733 735 737 736 731 727 721 719 719 720 720 719 709 700 693 687 685 683 677 690 681 684 695 701 701 708 710 720 722 721 718 716 719 717 721 728 734
747 744 741 737 733 729 726 725 726 728 728 723 716 716 716 716 715 712 710 705 703 698 689 686 686 680 693 685 681 688 695 699 707 718 721 725 726 725 722 724 727 731 736 740
741 738 735 731 727 723 721 718 717 721 724 717 716 715 713 712 710 706 701 700 697 693 687 687 694 698 695 698 691 697 700 698 695 705 708 712 727 729 726 730 733 737 741 749
734 731 728 725 721 718 717 715 710 713 719 721 715 715 712 710 707 704 699 698 699 698 695 700 702 702 700 693 696 704 702 698 692 702 710 713 725 731 733 733 737 743 745 748
728 725 722 718 715 715 714 710 709 709 716 716 712 711 713 710 707 703 701 699 698 696 703 704 706 708 705 695 698 710 705 701 706 712 714 726 728 733 737 739 744 746 749 753
722 719 715 713 710 709 708 707 705 707 711 712 710 709 711 712 708 701 704 701 699 704 712 713 712 712 711 716 715 713 710 709 713 718 718 722 730 736 740 744 746 749 752 756
716 713 710 708 708 706 703 705 705 707 712 710 708 702 706 711 711 708 703 704 704 713 712 713 712 710 712 725 723 717 718 716 723 725 727 731 734 739 743 745 748 749 753 756
712 710 708 705 701 700 701 705 708 709 707 710 705 708 703 707 708 708 709 713 714 712 718 717 714 718 726 725 723 722 725 725 724 728 734 737 739 741 744 745 748 749 752 754
708 708 705 701 700 701 702 701 701 705 703 703 704 705 703 708 703 708 711 708 711 709 719 712 722 721 726 728 727 727 726 726 729 730 732 734 735 739 743 746 748 750 752 754
705 702 701 701 701 702 700 703 706 702 692 701 697 699 701 706 706 703 712 710 710 711 723 714 721 726 729 730 729 731 731 731 733 736 737 739 740 743 745 748 749 750 752 753
701 700 698 698 705 707 697 710 700 700 697 699 698 699 701 703 703 708 709 715 723 726 731 727 727 731 732 732 732 732 734 734 735 737 738 740 742 743 745 746 747 749 750 750
696 692 695 694 700 694 687 683 682 687 688 693 695 702 702 708 707 714 716 727 726 729 734 727 731 730 730 733 735 734 736 737 738 739 740 741 743 743 744 744 746 748 747 746
690 690 689 691 686 688 689 689 688 690 689 691 698 703 706 714 718 718 721 726 725 721 721 724 728 729 732 733 735 736 737 739 739 739 739 739 739 740 739 739 740 741 741 740
689 688 685 688 687 690 689 688 689 690 690 693 696 705 706 714 714 717 716 710 718 717 722 724 726 729 732 733 735 736 737 737 737 737 737 737 736 736 736 735 734 734 734 733
684 684 686 686 685 683 686 688 688 691 689 696 701 707 709 719 717 713 720 716 715 718 722 723 725 727 729 731 732 733 733 734 734 734 734 733 733 733 732 731 728 728 726 724